Time,TemperatureF,DewpointF,PressureIn,WindDirection,WindDirectionDegrees,WindSpeedMPH,WindSpeedGustMPH,Humidity,HourlyPrecipIn,Conditions,Clouds,dailyrainin,SoftwareType,DateUTC
2013-10-13 00:04:00,64.9,61.3,30.15,South,179,0.0,3.0,88,0.00,,,0.00,meteohub,2013-10-12 22:04:00,
2013-10-13 00:09:00,64.6,61.0,30.15,South,178,2.0,3.0,88,0.00,,,0.00,meteohub,2013-10-12 22:09:00,
2013-10-13 00:14:00,64.4,60.8,30.15,East,80,2.0,4.0,88,0.00,,,0.00,meteohub,2013-10-12 22:14:00,
2013-10-13 00:19:00,64.2,60.6,30.15,East,80,0.0,4.0,88,0.00,,,0.00,meteohub,2013-10-12 22:19:00,
2013-10-13 00:24:00,64.2,60.6,30.15,East,80,0.0,4.0,88,0.00,,,0.00,meteohub,2013-10-12 22:24:00,
2013-10-13 00:29:00,64.0,60.8,30.15,East,80,0.0,4.0,89,0.00,,,0.00,meteohub,2013-10-12 22:29:00,
2013-10-13 00:34:00,63.9,60.6,30.15,East,80,0.0,3.0,89,0.00,,,0.00,meteohub,2013-10-12 22:34:00,
2013-10-13 00:39:00,63.7,60.4,30.15,East,80,0.0,3.0,89,0.00,,,0.00,meteohub,2013-10-12 22:39:00,
2013-10-13 00:44:00,63.7,60.4,30.15,East,80,0.0,3.0,89,0.00,,,0.00,meteohub,2013-10-12 22:44:00,
2013-10-13 00:50:00,63.7,60.4,30.14,East,80,0.0,3.0,89,0.00,,,0.00,meteohub,2013-10-12 22:50:00,
2013-10-13 00:55:00,63.5,60.3,30.15,East,80,0.0,3.0,89,0.00,,,0.00,meteohub,2013-10-12 22:55:00,
2013-10-13 01:00:00,63.3,60.1,30.15,East,80,0.0,3.0,89,0.00,,,0.00,meteohub,2013-10-12 23:00:00,
2013-10-13 01:05:00,63.3,60.1,30.15,East,80,0.0,4.0,89,0.00,,,0.00,meteohub,2013-10-12 23:05:00,
2013-10-13 01:10:00,63.1,59.9,30.15,East,80,1.0,4.0,89,0.00,,,0.00,meteohub,2013-10-12 23:10:00,
2013-10-13 01:15:00,63.1,59.9,30.15,East,80,0.0,4.0,89,0.00,,,0.00,meteohub,2013-10-12 23:15:00,
2013-10-13 01:20:00,63.1,59.9,30.15,East,80,0.0,2.0,89,0.00,,,0.00,meteohub,2013-10-12 23:20:00,
2013-10-13 01:25:00,63.1,59.9,30.14,East,80,0.0,2.0,89,0.00,,,0.00,meteohub,2013-10-12 23:25:00,
2013-10-13 01:30:00,63.1,59.9,30.14,East,80,0.0,1.0,89,0.00,,,0.00,meteohub,2013-10-12 23:30:00,
2013-10-13 01:35:00,63.1,59.9,30.15,East,80,0.0,1.0,89,0.00,,,0.00,meteohub,2013-10-12 23:35:00,
2013-10-13 01:40:00,63.1,59.9,30.15,East,80,0.0,2.0,89,0.00,,,0.00,meteohub,2013-10-12 23:40:00,
2013-10-13 01:45:00,63.0,59.7,30.15,East,80,0.0,2.0,89,0.00,,,0.00,meteohub,2013-10-12 23:45:00,
2013-10-13 01:50:00,63.0,59.7,30.15,East,80,0.0,2.0,89,0.00,,,0.00,meteohub,2013-10-12 23:50:00,
2013-10-13 01:56:00,63.0,59.7,30.15,NNE,16,3.0,4.0,89,0.00,,,0.00,meteohub,2013-10-12 23:56:00,
2013-10-13 02:01:00,62.8,59.7,30.15,NNW,335,4.0,4.0,90,0.00,,,0.00,meteohub,2013-10-13 00:01:00,
2013-10-13 02:06:00,62.6,59.5,30.15,NNW,334,3.0,5.0,90,0.00,,,0.00,meteohub,2013-10-13 00:06:00,
2013-10-13 02:11:00,62.4,59.4,30.15,NNW,334,0.0,5.0,90,0.00,,,0.00,meteohub,2013-10-13 00:11:00,
2013-10-13 02:16:00,62.2,59.2,30.15,NNW,334,0.0,5.0,90,0.00,,,0.00,meteohub,2013-10-13 00:16:00,
2013-10-13 02:21:00,62.2,59.2,30.15,NNW,334,0.0,3.0,90,0.00,,,0.00,meteohub,2013-10-13 00:21:00,
2013-10-13 02:26:00,62.2,59.2,30.15,NNW,334,3.0,3.0,90,0.00,,,0.00,meteohub,2013-10-13 00:26:00,
2013-10-13 02:31:00,62.1,59.2,30.14,North,349,0.0,3.0,90,0.00,,,0.00,meteohub,2013-10-13 00:31:00,
2013-10-13 02:36:00,62.1,59.2,30.14,North,349,2.0,4.0,90,0.00,,,0.00,meteohub,2013-10-13 00:36:00,
2013-10-13 02:41:00,62.1,59.2,30.14,NNW,345,2.0,4.0,90,0.00,,,0.00,meteohub,2013-10-13 00:41:00,
2013-10-13 02:46:00,62.1,59.2,30.14,NNW,344,2.0,4.0,90,0.00,,,0.00,meteohub,2013-10-13 00:46:00,
2013-10-13 02:51:00,62.1,59.2,30.14,NNW,344,0.0,4.0,90,0.00,,,0.00,meteohub,2013-10-13 00:51:00,
2013-10-13 02:57:00,61.9,59.0,30.14,NNW,344,0.0,4.0,90,0.00,,,0.00,meteohub,2013-10-13 00:57:00,
2013-10-13 03:02:00,61.9,59.0,30.14,NNW,344,3.0,3.0,90,0.00,,,0.00,meteohub,2013-10-13 01:02:00,
2013-10-13 03:07:00,61.9,59.0,30.14,NNW,344,3.0,3.0,90,0.00,,,0.00,meteohub,2013-10-13 01:07:00,
2013-10-13 03:12:00,61.7,58.8,30.14,NNW,344,3.0,5.0,90,0.00,,,0.00,meteohub,2013-10-13 01:12:00,
2013-10-13 03:17:00,61.5,58.6,30.14,NNW,344,2.0,5.0,90,0.00,,,0.00,meteohub,2013-10-13 01:17:00,
2013-10-13 03:22:00,61.5,58.6,30.14,NNW,344,0.0,5.0,90,0.00,,,0.00,meteohub,2013-10-13 01:22:00,
2013-10-13 03:27:00,61.5,58.6,30.14,NNW,344,0.0,4.0,90,0.00,,,0.00,meteohub,2013-10-13 01:27:00,
2013-10-13 03:32:00,61.5,58.6,30.14,NNW,344,0.0,4.0,90,0.00,,,0.00,meteohub,2013-10-13 01:32:00,
2013-10-13 03:37:00,61.3,58.5,30.14,NNW,344,2.0,3.0,90,0.00,,,0.00,meteohub,2013-10-13 01:37:00,
2013-10-13 03:42:00,61.2,58.3,30.14,NNW,344,0.0,3.0,90,0.00,,,0.00,meteohub,2013-10-13 01:42:00,
2013-10-13 03:47:00,61.2,58.3,30.14,NNW,344,0.0,3.0,90,0.00,,,0.00,meteohub,2013-10-13 01:47:00,
2013-10-13 03:52:00,61.2,58.3,30.14,NNW,344,0.0,3.0,90,0.00,,,0.00,meteohub,2013-10-13 01:52:00,
2013-10-13 03:57:00,61.2,58.3,30.14,NNW,344,0.0,1.0,90,0.00,,,0.00,meteohub,2013-10-13 01:57:00,
2013-10-13 04:02:00,61.2,58.3,30.14,NNW,344,0.0,1.0,90,0.00,,,0.00,meteohub,2013-10-13 02:02:00,
2013-10-13 04:07:00,61.2,58.3,30.13,NNW,344,1.0,1.0,90,0.00,,,0.00,meteohub,2013-10-13 02:07:00,
2013-10-13 04:12:00,61.2,58.3,30.14,NNW,344,0.0,3.0,90,0.00,,,0.00,meteohub,2013-10-13 02:12:00,
2013-10-13 04:17:00,61.2,57.9,30.14,NNW,344,0.0,3.0,89,0.00,,,0.00,meteohub,2013-10-13 02:17:00,
2013-10-13 04:23:00,61.0,57.7,30.14,NNW,344,0.0,3.0,89,0.00,,,0.00,meteohub,2013-10-13 02:23:00,
2013-10-13 04:28:00,61.0,57.7,30.14,NNW,342,3.0,3.0,89,0.00,,,0.00,meteohub,2013-10-13 02:28:00,
2013-10-13 04:33:00,61.0,57.7,30.14,NNW,342,3.0,4.0,89,0.00,,,0.00,meteohub,2013-10-13 02:33:00,
2013-10-13 04:38:00,60.8,57.6,30.14,NNW,342,0.0,4.0,89,0.00,,,0.00,meteohub,2013-10-13 02:38:00,
2013-10-13 04:43:00,60.8,57.6,30.14,NNW,342,1.0,4.0,89,0.00,,,0.00,meteohub,2013-10-13 02:43:00,
2013-10-13 04:48:00,60.6,57.4,30.14,NNW,342,0.0,4.0,89,0.00,,,0.00,meteohub,2013-10-13 02:48:00,
2013-10-13 04:53:00,60.4,57.2,30.14,NNW,342,0.0,3.0,89,0.00,,,0.00,meteohub,2013-10-13 02:53:00,
2013-10-13 04:58:00,60.3,57.0,30.14,NNW,342,3.0,3.0,89,0.00,,,0.00,meteohub,2013-10-13 02:58:00,
2013-10-13 05:03:00,60.4,57.2,30.14,NNW,342,0.0,3.0,89,0.00,,,0.00,meteohub,2013-10-13 03:03:00,
2013-10-13 05:08:00,60.4,57.2,30.14,NNW,342,0.0,3.0,89,0.00,,,0.00,meteohub,2013-10-13 03:08:00,
2013-10-13 05:13:00,60.4,57.2,30.14,NNW,342,0.0,3.0,89,0.00,,,0.00,meteohub,2013-10-13 03:13:00,
2013-10-13 05:18:00,60.4,57.2,30.14,NNW,342,1.0,3.0,89,0.00,,,0.00,meteohub,2013-10-13 03:18:00,
2013-10-13 05:24:00,60.4,57.2,30.14,NNW,342,0.0,3.0,89,0.00,,,0.00,meteohub,2013-10-13 03:24:00,
2013-10-13 05:29:00,60.4,57.2,30.13,NNW,344,2.0,5.0,89,0.00,,,0.00,meteohub,2013-10-13 03:29:00,
2013-10-13 05:34:00,60.4,57.2,30.13,NNW,344,3.0,5.0,89,0.00,,,0.00,meteohub,2013-10-13 03:34:00,
2013-10-13 05:39:00,60.4,57.2,30.13,NNW,328,3.0,5.0,89,0.00,,,0.00,meteohub,2013-10-13 03:39:00,
2013-10-13 05:44:00,60.4,57.2,30.13,NNW,332,4.0,9.0,89,0.00,,,0.00,meteohub,2013-10-13 03:44:00,
2013-10-13 05:49:00,60.4,57.2,30.14,NNW,328,4.0,9.0,89,0.00,,,0.00,meteohub,2013-10-13 03:49:00,
2013-10-13 05:54:00,60.3,57.0,30.14,NNW,329,3.0,9.0,89,0.00,,,0.00,meteohub,2013-10-13 03:54:00,
2013-10-13 05:59:00,60.3,57.4,30.14,NNW,329,3.0,7.0,90,0.00,,,0.00,meteohub,2013-10-13 03:59:00,
2013-10-13 06:01:00,60.3,57.4,30.14,NNW,329,1.0,7.0,90,0.00,,,0.00,meteohub,2013-10-13 04:01:00,
2013-10-13 06:02:00,60.3,57.4,30.14,NNW,329,2.0,7.0,90,0.00,,,0.00,meteohub,2013-10-13 04:02:00,
2013-10-13 06:07:00,60.1,57.2,30.14,NNW,328,1.0,5.0,90,0.00,,,0.00,meteohub,2013-10-13 04:07:00,
2013-10-13 06:12:00,60.1,57.2,30.14,NNW,329,3.0,3.0,90,0.00,,,0.00,meteohub,2013-10-13 04:12:00,
2013-10-13 06:17:00,59.9,57.0,30.14,NNW,330,4.0,4.0,90,0.00,,,0.00,meteohub,2013-10-13 04:17:00,
2013-10-13 06:22:00,59.7,56.8,30.14,NNW,330,4.0,4.0,90,0.00,,,0.00,meteohub,2013-10-13 04:22:00,
2013-10-13 06:28:00,59.7,56.8,30.14,NNW,330,3.0,6.0,90,0.00,,,0.00,meteohub,2013-10-13 04:28:00,
2013-10-13 06:33:00,59.7,56.8,30.14,NNW,330,3.0,6.0,90,0.00,,,0.00,meteohub,2013-10-13 04:33:00,
2013-10-13 06:38:00,59.5,56.7,30.14,NNW,330,2.0,5.0,90,0.00,,,0.00,meteohub,2013-10-13 04:38:00,
2013-10-13 06:43:00,59.7,56.8,30.14,NNW,331,3.0,5.0,90,0.00,,,0.00,meteohub,2013-10-13 04:43:00,
2013-10-13 06:48:00,59.7,56.8,30.13,NNW,331,3.0,5.0,90,0.00,,,0.00,meteohub,2013-10-13 04:48:00,
2013-10-13 06:53:00,59.7,56.8,30.13,NNW,331,1.0,5.0,90,0.00,,,0.00,meteohub,2013-10-13 04:53:00,
2013-10-13 06:58:00,59.7,56.8,30.13,NNW,331,2.0,5.0,90,0.00,,,0.00,meteohub,2013-10-13 04:58:00,
2013-10-13 07:03:00,59.7,56.8,30.13,NNW,331,0.0,5.0,90,0.00,,,0.00,meteohub,2013-10-13 05:03:00,
2013-10-13 07:08:00,59.7,56.8,30.13,NNW,331,0.0,4.0,90,0.00,,,0.00,meteohub,2013-10-13 05:08:00,
2013-10-13 07:13:00,59.5,56.7,30.14,NNW,329,0.0,4.0,90,0.00,,,0.00,meteohub,2013-10-13 05:13:00,
2013-10-13 07:18:00,59.5,56.7,30.14,NNW,328,0.0,4.0,90,0.00,,,0.00,meteohub,2013-10-13 05:18:00,
2013-10-13 07:23:00,59.5,56.7,30.14,NNW,329,0.0,4.0,90,0.00,,,0.00,meteohub,2013-10-13 05:23:00,
2013-10-13 07:29:00,59.4,56.1,30.14,NNW,330,2.0,4.0,89,0.00,,,0.00,meteohub,2013-10-13 05:29:00,
2013-10-13 07:34:00,59.2,56.3,30.14,NNW,330,0.0,5.0,90,0.00,,,0.00,meteohub,2013-10-13 05:34:00,
2013-10-13 07:39:00,59.2,56.3,30.14,NNW,330,5.0,5.0,90,0.00,,,0.00,meteohub,2013-10-13 05:39:00,
2013-10-13 07:44:00,59.2,56.3,30.14,NNW,330,0.0,5.0,90,0.00,,,0.00,meteohub,2013-10-13 05:44:00,
2013-10-13 07:49:00,59.2,56.3,30.14,NNW,330,3.0,5.0,90,0.00,,,0.00,meteohub,2013-10-13 05:49:00,
2013-10-13 07:54:00,59.2,56.3,30.14,NNW,327,4.0,5.0,90,0.00,,,0.00,meteohub,2013-10-13 05:54:00,
2013-10-13 07:59:00,59.2,56.3,30.14,WNW,284,3.0,5.0,90,0.00,,,0.00,meteohub,2013-10-13 05:59:00,
2013-10-13 08:04:00,59.2,56.3,30.15,NNW,327,3.0,6.0,90,0.00,,,0.00,meteohub,2013-10-13 06:04:00,
2013-10-13 08:09:00,59.2,56.3,30.15,NW,316,6.0,7.0,90,0.00,,,0.00,meteohub,2013-10-13 06:09:00,
2013-10-13 08:14:00,59.4,56.5,30.15,NW,316,4.0,7.0,90,0.00,,,0.00,meteohub,2013-10-13 06:14:00,
2013-10-13 08:19:00,59.5,56.7,30.15,NNW,338,4.0,6.0,90,0.00,,,0.00,meteohub,2013-10-13 06:19:00,
2013-10-13 08:24:00,59.7,56.8,30.15,NNW,333,3.0,7.0,90,0.00,,,0.00,meteohub,2013-10-13 06:24:00,
2013-10-13 08:29:00,59.9,57.0,30.15,NNW,333,3.0,7.0,90,0.00,,,0.00,meteohub,2013-10-13 06:29:00,
2013-10-13 08:34:00,60.1,56.8,30.15,NW,314,0.0,7.0,89,0.00,,,0.00,meteohub,2013-10-13 06:34:00,
2013-10-13 08:39:00,60.4,57.2,30.15,NNW,332,5.0,6.0,89,0.00,,,0.00,meteohub,2013-10-13 06:39:00,
2013-10-13 08:44:00,60.6,57.4,30.16,NNW,327,2.0,7.0,89,0.00,,,0.00,meteohub,2013-10-13 06:44:00,
2013-10-13 08:50:00,60.8,57.6,30.16,WNW,293,5.0,11.0,89,0.00,,,0.00,meteohub,2013-10-13 06:50:00,
2013-10-13 08:55:00,61.0,57.7,30.16,NNW,331,6.0,11.0,89,0.00,,,0.00,meteohub,2013-10-13 06:55:00,
2013-10-13 09:00:00,61.0,57.7,30.16,NNW,331,4.0,11.0,89,0.00,,,0.00,meteohub,2013-10-13 07:00:00,
2013-10-13 09:05:00,61.3,58.1,30.16,North,354,3.0,10.0,89,0.00,,,0.00,meteohub,2013-10-13 07:05:00,
2013-10-13 09:10:00,61.5,58.3,30.17,NNW,334,4.0,10.0,89,0.00,,,0.00,meteohub,2013-10-13 07:10:00,
2013-10-13 09:15:00,61.9,58.6,30.17,North,349,0.0,10.0,89,0.00,,,0.00,meteohub,2013-10-13 07:15:00,
2013-10-13 09:20:00,62.1,58.5,30.17,North,359,5.0,9.0,88,0.00,,,0.00,meteohub,2013-10-13 07:20:00,
2013-10-13 09:25:00,62.2,58.6,30.17,NW,324,4.0,9.0,88,0.00,,,0.00,meteohub,2013-10-13 07:25:00,
2013-10-13 09:30:00,62.6,58.6,30.17,NW,325,3.0,7.0,87,0.00,,,0.00,meteohub,2013-10-13 07:30:00,
2013-10-13 09:35:00,63.1,59.2,30.17,NNW,330,3.0,6.0,87,0.00,,,0.00,meteohub,2013-10-13 07:35:00,
2013-10-13 09:40:00,63.3,59.0,30.17,NNW,330,4.0,6.0,86,0.00,,,0.00,meteohub,2013-10-13 07:40:00,
2013-10-13 09:45:00,63.5,59.2,30.17,NNW,330,1.0,5.0,86,0.00,,,0.00,meteohub,2013-10-13 07:45:00,
2013-10-13 09:50:00,63.9,59.2,30.17,NNW,330,0.0,5.0,85,0.00,,,0.00,meteohub,2013-10-13 07:50:00,
2013-10-13 09:55:00,64.2,59.4,30.17,North,349,6.0,6.0,84,0.00,,,0.00,meteohub,2013-10-13 07:55:00,
2013-10-13 10:01:00,64.2,59.0,30.17,NW,320,5.0,5.0,83,0.00,,,0.00,meteohub,2013-10-13 08:01:00,
2013-10-13 10:06:00,64.4,59.2,30.17,North,349,2.0,6.0,83,0.00,,,0.00,meteohub,2013-10-13 08:06:00,
2013-10-13 10:11:00,64.6,59.4,30.17,NW,321,0.0,8.0,83,0.00,,,0.00,meteohub,2013-10-13 08:11:00,
2013-10-13 10:16:00,64.8,59.2,30.17,NNW,330,4.0,8.0,82,0.00,,,0.00,meteohub,2013-10-13 08:16:00,
2013-10-13 10:21:00,64.6,58.6,30.17,NW,312,5.0,8.0,81,0.00,,,0.00,meteohub,2013-10-13 08:21:00,
2013-10-13 10:26:00,64.2,58.3,30.18,NNW,328,4.0,9.0,81,0.00,,,0.00,meteohub,2013-10-13 08:26:00,
2013-10-13 10:31:00,64.2,58.6,30.17,North,349,3.0,9.0,82,0.00,,,0.00,meteohub,2013-10-13 08:31:00,
2013-10-13 10:36:00,64.6,59.0,30.17,NNW,345,4.0,9.0,82,0.00,,,0.00,meteohub,2013-10-13 08:36:00,
2013-10-13 10:41:00,64.9,59.4,30.17,North,359,5.0,7.0,82,0.00,,,0.00,meteohub,2013-10-13 08:41:00,
2013-10-13 10:46:00,64.8,58.8,30.17,North,11,3.0,9.0,81,0.00,,,0.00,meteohub,2013-10-13 08:46:00,
2013-10-13 10:51:00,64.9,58.6,30.17,NW,317,4.0,9.0,80,0.00,,,0.00,meteohub,2013-10-13 08:51:00,
2013-10-13 10:56:00,65.5,59.2,30.18,NW,320,4.0,9.0,80,0.00,,,0.00,meteohub,2013-10-13 08:56:00,
2013-10-13 11:02:00,66.0,59.4,30.17,WNW,300,1.0,8.0,79,0.00,,,0.00,meteohub,2013-10-13 09:02:00,
2013-10-13 11:07:00,66.7,59.7,30.17,North,11,5.0,7.0,78,0.00,,,0.00,meteohub,2013-10-13 09:07:00,
2013-10-13 11:12:00,66.9,58.8,30.17,NNW,332,4.0,7.0,75,0.00,,,0.00,meteohub,2013-10-13 09:12:00,
2013-10-13 11:17:00,67.3,58.6,30.17,North,7,4.0,6.0,74,0.00,,,0.00,meteohub,2013-10-13 09:17:00,
2013-10-13 11:22:00,67.5,58.1,30.17,North,5,3.0,6.0,72,0.00,,,0.00,meteohub,2013-10-13 09:22:00,
2013-10-13 11:27:00,67.6,58.6,30.17,North,9,3.0,7.0,73,0.00,,,0.00,meteohub,2013-10-13 09:27:00,
2013-10-13 11:32:00,68.2,58.8,30.17,WNW,297,4.0,7.0,72,0.00,,,0.00,meteohub,2013-10-13 09:32:00,
2013-10-13 11:37:00,68.2,58.5,30.17,NNE,19,5.0,10.0,71,0.00,,,0.00,meteohub,2013-10-13 09:37:00,
2013-10-13 11:42:00,68.7,59.4,30.17,NW,313,3.0,10.0,72,0.00,,,0.00,meteohub,2013-10-13 09:42:00,
2013-10-13 11:47:00,68.5,58.3,30.17,North,7,4.0,10.0,70,0.00,,,0.00,meteohub,2013-10-13 09:47:00,
2013-10-13 11:52:00,68.7,59.0,30.17,NNE,24,7.0,10.0,71,0.00,,,0.00,meteohub,2013-10-13 09:52:00,
2013-10-13 11:57:00,69.4,59.5,30.17,NW,325,0.0,10.0,71,0.00,,,0.00,meteohub,2013-10-13 09:57:00,
2013-10-13 12:02:00,69.6,59.0,30.17,NNE,19,5.0,7.0,69,0.00,,,0.00,meteohub,2013-10-13 10:02:00,
2013-10-13 12:07:00,69.6,59.0,30.17,NNE,33,2.0,7.0,69,0.00,,,0.00,meteohub,2013-10-13 10:07:00,
2013-10-13 12:12:00,70.0,59.4,30.17,NE,34,3.0,7.0,69,0.00,,,0.00,meteohub,2013-10-13 10:12:00,
2013-10-13 12:17:00,70.5,60.3,30.16,North,359,1.0,7.0,70,0.00,,,0.00,meteohub,2013-10-13 10:17:00,
2013-10-13 12:22:00,71.1,59.9,30.16,ENE,64,3.0,7.0,68,0.00,,,0.00,meteohub,2013-10-13 10:22:00,
2013-10-13 12:27:00,71.1,59.5,30.16,ENE,64,6.0,7.0,67,0.00,,,0.00,meteohub,2013-10-13 10:27:00,
2013-10-13 12:33:00,71.4,59.9,30.16,ENE,63,4.0,7.0,67,0.00,,,0.00,meteohub,2013-10-13 10:33:00,
2013-10-13 12:38:00,71.6,59.7,30.16,NNW,344,3.0,7.0,66,0.00,,,0.00,meteohub,2013-10-13 10:38:00,
2013-10-13 12:43:00,72.3,60.3,30.15,NNW,343,0.0,7.0,66,0.00,,,0.00,meteohub,2013-10-13 10:43:00,
2013-10-13 12:48:00,72.7,59.7,30.15,ENE,66,3.0,6.0,64,0.00,,,0.00,meteohub,2013-10-13 10:48:00,
2013-10-13 12:53:00,72.7,60.6,30.15,NE,34,3.0,6.0,66,0.00,,,0.00,meteohub,2013-10-13 10:53:00,
2013-10-13 12:58:00,73.0,61.0,30.15,NE,35,4.0,5.0,66,0.00,,,0.00,meteohub,2013-10-13 10:58:00,
2013-10-13 13:03:00,73.2,60.8,30.15,NE,54,0.0,5.0,65,0.00,,,0.00,meteohub,2013-10-13 11:03:00,
2013-10-13 13:08:00,73.2,60.3,30.15,NE,55,4.0,5.0,64,0.00,,,0.00,meteohub,2013-10-13 11:08:00,
2013-10-13 13:13:00,73.2,58.5,30.14,NE,55,3.0,5.0,60,0.00,,,0.00,meteohub,2013-10-13 11:13:00,
2013-10-13 13:18:00,73.6,59.7,30.14,NE,55,3.0,5.0,62,0.00,,,0.00,meteohub,2013-10-13 11:18:00,
2013-10-13 13:23:00,74.1,60.8,30.14,NE,55,1.0,6.0,63,0.00,,,0.00,meteohub,2013-10-13 11:23:00,
2013-10-13 13:28:00,74.3,59.5,30.14,North,359,4.0,6.0,60,0.00,,,0.00,meteohub,2013-10-13 11:28:00,
2013-10-13 13:33:00,73.9,59.2,30.14,North,354,0.0,6.0,60,0.00,,,0.00,meteohub,2013-10-13 11:33:00,
2013-10-13 13:38:00,74.1,58.5,30.14,North,354,0.0,6.0,58,0.00,,,0.00,meteohub,2013-10-13 11:38:00,
2013-10-13 13:43:00,74.1,58.8,30.14,NW,310,4.0,6.0,59,0.00,,,0.00,meteohub,2013-10-13 11:43:00,
2013-10-13 13:49:00,74.1,58.8,30.14,NW,307,0.0,8.0,59,0.00,,,0.00,meteohub,2013-10-13 11:49:00,
2013-10-13 13:54:00,74.1,58.8,30.14,NW,307,0.0,8.0,59,0.00,,,0.00,meteohub,2013-10-13 11:54:00,
2013-10-13 13:59:00,74.3,58.6,30.13,NW,307,1.0,8.0,58,0.00,,,0.00,meteohub,2013-10-13 11:59:00,
2013-10-13 14:04:00,74.5,59.2,30.13,NW,307,2.0,5.0,59,0.00,,,0.00,meteohub,2013-10-13 12:04:00,
2013-10-13 14:09:00,74.5,59.2,30.13,NW,307,0.0,4.0,59,0.00,,,0.00,meteohub,2013-10-13 12:09:00,
2013-10-13 14:14:00,74.8,59.5,30.13,NW,307,1.0,4.0,59,0.00,,,0.00,meteohub,2013-10-13 12:14:00,
2013-10-13 14:19:00,74.7,58.5,30.13,NW,308,0.0,5.0,57,0.00,,,0.00,meteohub,2013-10-13 12:19:00,
2013-10-13 14:24:00,74.7,58.8,30.13,NW,308,0.0,5.0,58,0.00,,,0.00,meteohub,2013-10-13 12:24:00,
2013-10-13 14:29:00,74.5,58.3,30.13,NW,317,5.0,5.0,57,0.00,,,0.00,meteohub,2013-10-13 12:29:00,
2013-10-13 14:34:00,74.5,58.3,30.13,WNW,292,0.0,5.0,57,0.00,,,0.00,meteohub,2013-10-13 12:34:00,
2013-10-13 14:39:00,74.7,57.9,30.13,NW,304,4.0,5.0,56,0.00,,,0.00,meteohub,2013-10-13 12:39:00,
2013-10-13 14:44:00,74.7,57.9,30.13,NW,307,3.0,5.0,56,0.00,,,0.00,meteohub,2013-10-13 12:44:00,
2013-10-13 14:50:00,74.8,57.0,30.13,WNW,296,3.0,5.0,54,0.00,,,0.00,meteohub,2013-10-13 12:50:00,
2013-10-13 14:55:00,74.8,57.0,30.13,NW,304,0.0,5.0,54,0.00,,,0.00,meteohub,2013-10-13 12:55:00,
2013-10-13 15:00:00,74.7,56.5,30.13,NW,304,0.0,5.0,53,0.00,,,0.00,meteohub,2013-10-13 13:00:00,
2013-10-13 15:05:00,74.8,56.1,30.12,NW,304,1.0,5.0,52,0.00,,,0.00,meteohub,2013-10-13 13:05:00,
2013-10-13 15:10:00,74.8,56.5,30.12,NW,304,0.0,5.0,53,0.00,,,0.00,meteohub,2013-10-13 13:10:00,
2013-10-13 15:15:00,75.2,55.8,30.12,WNW,299,2.0,5.0,51,0.00,,,0.00,meteohub,2013-10-13 13:15:00,
2013-10-13 15:20:00,75.4,56.5,30.12,WNW,300,0.0,6.0,52,0.00,,,0.00,meteohub,2013-10-13 13:20:00,
2013-10-13 15:25:00,75.4,56.5,30.12,WNW,300,0.0,6.0,52,0.00,,,0.00,meteohub,2013-10-13 13:25:00,
2013-10-13 15:30:00,75.6,56.1,30.12,WNW,299,0.0,6.0,51,0.00,,,0.00,meteohub,2013-10-13 13:30:00,
2013-10-13 15:35:00,75.4,57.6,30.12,WNW,301,3.0,4.0,54,0.00,,,0.00,meteohub,2013-10-13 13:35:00,
2013-10-13 15:40:00,75.4,58.1,30.12,WNW,301,0.0,4.0,55,0.00,,,0.00,meteohub,2013-10-13 13:40:00,
2013-10-13 15:45:00,75.4,57.6,30.12,North,7,0.0,4.0,54,0.00,,,0.00,meteohub,2013-10-13 13:45:00,
2013-10-13 15:50:00,75.6,57.7,30.12,North,7,0.0,6.0,54,0.00,,,0.00,meteohub,2013-10-13 13:50:00,
2013-10-13 15:56:00,75.4,58.1,30.12,NW,324,2.0,6.0,55,0.00,,,0.00,meteohub,2013-10-13 13:56:00,
2013-10-13 16:01:00,75.6,57.7,30.12,NW,324,1.0,6.0,54,0.00,,,0.00,meteohub,2013-10-13 14:01:00,
2013-10-13 16:06:00,75.7,57.9,30.12,NW,324,0.0,4.0,54,0.00,,,0.00,meteohub,2013-10-13 14:06:00,
2013-10-13 16:11:00,75.7,57.9,30.12,NW,319,0.0,4.0,54,0.00,,,0.00,meteohub,2013-10-13 14:11:00,
2013-10-13 16:16:00,75.7,57.9,30.12,NW,319,0.0,4.0,54,0.00,,,0.00,meteohub,2013-10-13 14:16:00,
2013-10-13 16:21:00,75.9,58.1,30.12,NW,316,0.0,4.0,54,0.00,,,0.00,meteohub,2013-10-13 14:21:00,
2013-10-13 16:26:00,75.9,58.1,30.12,NW,317,2.0,4.0,54,0.00,,,0.00,meteohub,2013-10-13 14:26:00,
2013-10-13 16:31:00,76.3,58.5,30.12,NW,317,0.0,4.0,54,0.00,,,0.00,meteohub,2013-10-13 14:31:00,
2013-10-13 16:36:00,76.1,58.8,30.12,NW,313,1.0,4.0,55,0.00,,,0.00,meteohub,2013-10-13 14:36:00,
2013-10-13 16:41:00,75.7,58.5,30.12,NW,310,0.0,4.0,55,0.00,,,0.00,meteohub,2013-10-13 14:41:00,
2013-10-13 16:46:00,76.3,59.0,30.12,NW,311,3.0,4.0,55,0.00,,,0.00,meteohub,2013-10-13 14:46:00,
2013-10-13 16:51:00,75.7,58.5,30.12,NW,308,5.0,5.0,55,0.00,,,0.00,meteohub,2013-10-13 14:51:00,
2013-10-13 16:56:00,75.7,59.0,30.12,NW,307,5.0,5.0,56,0.00,,,0.00,meteohub,2013-10-13 14:56:00,
2013-10-13 17:01:00,75.6,58.8,30.12,NW,309,3.0,6.0,56,0.00,,,0.00,meteohub,2013-10-13 15:01:00,
2013-10-13 17:06:00,75.7,59.0,30.12,NW,309,0.0,6.0,56,0.00,,,0.00,meteohub,2013-10-13 15:06:00,
2013-10-13 17:12:00,75.7,59.0,30.12,NW,309,1.0,6.0,56,0.00,,,0.00,meteohub,2013-10-13 15:12:00,
2013-10-13 17:17:00,75.9,58.6,30.12,NW,309,2.0,4.0,55,0.00,,,0.00,meteohub,2013-10-13 15:17:00,
2013-10-13 17:22:00,75.7,58.5,30.12,NW,309,2.0,3.0,55,0.00,,,0.00,meteohub,2013-10-13 15:22:00,
2013-10-13 17:27:00,75.6,58.8,30.12,NW,308,0.0,3.0,56,0.00,,,0.00,meteohub,2013-10-13 15:27:00,
2013-10-13 17:32:00,75.6,58.8,30.12,NW,308,0.0,3.0,56,0.00,,,0.00,meteohub,2013-10-13 15:32:00,
2013-10-13 17:37:00,75.6,58.8,30.12,NW,308,4.0,4.0,56,0.00,,,0.00,meteohub,2013-10-13 15:37:00,
2013-10-13 17:42:00,75.4,58.6,30.12,NW,308,2.0,5.0,56,0.00,,,0.00,meteohub,2013-10-13 15:42:00,
2013-10-13 17:47:00,75.6,58.8,30.12,NW,308,0.0,5.0,56,0.00,,,0.00,meteohub,2013-10-13 15:47:00,
2013-10-13 17:52:00,75.4,58.1,30.12,NW,304,0.0,5.0,55,0.00,,,0.00,meteohub,2013-10-13 15:52:00,
2013-10-13 17:57:00,75.4,58.1,30.12,NW,304,4.0,4.0,55,0.00,,,0.00,meteohub,2013-10-13 15:57:00,
2013-10-13 18:02:00,75.4,58.1,30.12,NW,304,0.0,4.0,55,0.00,,,0.00,meteohub,2013-10-13 16:02:00,
2013-10-13 18:07:00,75.2,57.9,30.12,NW,304,0.0,4.0,55,0.00,,,0.00,meteohub,2013-10-13 16:07:00,
2013-10-13 18:12:00,75.0,58.3,30.12,NW,304,0.0,4.0,56,0.00,,,0.00,meteohub,2013-10-13 16:12:00,
2013-10-13 18:18:00,74.8,58.1,30.13,NW,304,0.0,2.0,56,0.00,,,0.00,meteohub,2013-10-13 16:18:00,
2013-10-13 18:23:00,74.8,58.1,30.13,NW,304,0.0,2.0,56,0.00,,,0.00,meteohub,2013-10-13 16:23:00,
2013-10-13 18:28:00,74.7,58.5,30.13,NW,304,1.0,1.0,57,0.00,,,0.00,meteohub,2013-10-13 16:28:00,
2013-10-13 18:33:00,74.5,58.8,30.13,WNW,290,5.0,5.0,58,0.00,,,0.00,meteohub,2013-10-13 16:33:00,
2013-10-13 18:38:00,73.9,58.6,30.13,WSW,257,3.0,5.0,59,0.00,,,0.00,meteohub,2013-10-13 16:38:00,
2013-10-13 18:43:00,73.6,58.8,30.13,WSW,253,0.0,6.0,60,0.00,,,0.00,meteohub,2013-10-13 16:43:00,
2013-10-13 18:48:00,73.2,58.5,30.13,WSW,253,3.0,6.0,60,0.00,,,0.00,meteohub,2013-10-13 16:48:00,
2013-10-13 18:53:00,73.0,58.3,30.13,WSW,253,3.0,6.0,60,0.00,,,0.00,meteohub,2013-10-13 16:53:00,
2013-10-13 18:58:00,73.0,58.3,30.14,WSW,256,1.0,7.0,60,0.00,,,0.00,meteohub,2013-10-13 16:58:00,
2013-10-13 19:03:00,72.9,58.1,30.13,WSW,256,2.0,7.0,60,0.00,,,0.00,meteohub,2013-10-13 17:03:00,
2013-10-13 19:08:00,72.7,57.9,30.14,WSW,256,0.0,7.0,60,0.00,,,0.00,meteohub,2013-10-13 17:08:00,
2013-10-13 19:13:00,72.7,57.9,30.13,WSW,256,0.0,6.0,60,0.00,,,0.00,meteohub,2013-10-13 17:13:00,
2013-10-13 19:18:00,72.3,57.7,30.14,WSW,255,0.0,5.0,60,0.00,,,0.00,meteohub,2013-10-13 17:18:00,
2013-10-13 19:23:00,72.3,57.7,30.14,WSW,256,0.0,4.0,60,0.00,,,0.00,meteohub,2013-10-13 17:23:00,
2013-10-13 19:29:00,72.1,57.6,30.14,WSW,256,3.0,4.0,60,0.00,,,0.00,meteohub,2013-10-13 17:29:00,
2013-10-13 19:34:00,72.0,57.4,30.14,WSW,255,0.0,5.0,60,0.00,,,0.00,meteohub,2013-10-13 17:34:00,
2013-10-13 19:39:00,72.0,57.4,30.14,WSW,255,0.0,5.0,60,0.00,,,0.00,meteohub,2013-10-13 17:39:00,
2013-10-13 19:44:00,71.8,57.2,30.14,WSW,256,1.0,5.0,60,0.00,,,0.00,meteohub,2013-10-13 17:44:00,
2013-10-13 19:49:00,71.6,57.0,30.14,WSW,256,2.0,3.0,60,0.00,,,0.00,meteohub,2013-10-13 17:49:00,
2013-10-13 19:54:00,71.4,56.8,30.14,WSW,256,0.0,3.0,60,0.00,,,0.00,meteohub,2013-10-13 17:54:00,
2013-10-13 19:59:00,71.4,57.2,30.14,WSW,256,0.0,3.0,61,0.00,,,0.00,meteohub,2013-10-13 17:59:00,
2013-10-13 20:05:00,71.1,56.8,30.14,WSW,256,0.0,3.0,61,0.00,,,0.00,meteohub,2013-10-13 18:05:00,
2013-10-13 20:10:00,70.9,56.8,30.14,WSW,256,0.0,3.0,61,0.00,,,0.00,meteohub,2013-10-13 18:10:00,
2013-10-13 20:15:00,70.9,56.3,30.14,WSW,256,3.0,3.0,60,0.00,,,0.00,meteohub,2013-10-13 18:15:00,
2013-10-13 20:20:00,70.7,56.1,30.14,WSW,256,0.0,1.0,60,0.00,,,0.00,meteohub,2013-10-13 18:20:00,
2013-10-13 20:25:00,70.7,56.7,30.14,WSW,256,3.0,3.0,61,0.00,,,0.00,meteohub,2013-10-13 18:25:00,
2013-10-13 20:30:00,70.5,56.5,30.14,WSW,256,3.0,4.0,61,0.00,,,0.00,meteohub,2013-10-13 18:30:00,
2013-10-13 20:35:00,70.3,56.3,30.14,WSW,256,0.0,4.0,61,0.00,,,0.00,meteohub,2013-10-13 18:35:00,
2013-10-13 20:40:00,70.3,56.3,30.14,WSW,256,0.0,4.0,61,0.00,,,0.00,meteohub,2013-10-13 18:40:00,
2013-10-13 20:46:00,70.2,56.5,30.14,WSW,256,0.0,4.0,62,0.00,,,0.00,meteohub,2013-10-13 18:46:00,
2013-10-13 20:51:00,70.2,56.5,30.14,WSW,256,0.0,4.0,62,0.00,,,0.00,meteohub,2013-10-13 18:51:00,
2013-10-13 20:56:00,70.0,56.3,30.14,WSW,256,0.0,1.0,62,0.00,,,0.00,meteohub,2013-10-13 18:56:00,
2013-10-13 21:01:00,69.8,56.7,30.14,WSW,256,2.0,2.0,63,0.00,,,0.00,meteohub,2013-10-13 19:01:00,
2013-10-13 21:06:00,69.1,56.5,30.14,WSW,256,0.0,3.0,64,0.00,,,0.00,meteohub,2013-10-13 19:06:00,
2013-10-13 21:11:00,68.9,56.3,30.14,WSW,256,0.0,3.0,64,0.00,,,0.00,meteohub,2013-10-13 19:11:00,
2013-10-13 21:16:00,69.1,56.8,30.14,WSW,256,0.0,3.0,65,0.00,,,0.00,meteohub,2013-10-13 19:16:00,
2013-10-13 21:21:00,69.1,56.8,30.14,WSW,255,0.0,3.0,65,0.00,,,0.00,meteohub,2013-10-13 19:21:00,
2013-10-13 21:26:00,69.1,56.8,30.14,WSW,256,0.0,1.0,65,0.00,,,0.00,meteohub,2013-10-13 19:26:00,
2013-10-13 21:31:00,69.1,57.2,30.14,WSW,255,0.0,2.0,66,0.00,,,0.00,meteohub,2013-10-13 19:31:00,
2013-10-13 21:36:00,68.9,57.6,30.15,WSW,255,0.0,2.0,67,0.00,,,0.00,meteohub,2013-10-13 19:36:00,
2013-10-13 21:42:00,68.7,57.4,30.15,WSW,256,0.0,2.0,67,0.00,,,0.00,meteohub,2013-10-13 19:42:00,
2013-10-13 21:47:00,68.5,57.2,30.15,WSW,255,0.0,0.0,67,0.00,,,0.00,meteohub,2013-10-13 19:47:00,
2013-10-13 21:52:00,68.4,57.0,30.15,WSW,256,0.0,0.0,67,0.00,,,0.00,meteohub,2013-10-13 19:52:00,
2013-10-13 21:57:00,68.2,57.2,30.15,WSW,255,0.0,0.0,68,0.00,,,0.00,meteohub,2013-10-13 19:57:00,
2013-10-13 22:02:00,68.2,57.6,30.15,WSW,256,0.0,0.0,69,0.00,,,0.00,meteohub,2013-10-13 20:02:00,
2013-10-13 22:07:00,67.8,57.2,30.15,WSW,256,0.0,0.0,69,0.00,,,0.00,meteohub,2013-10-13 20:07:00,
2013-10-13 22:12:00,67.6,57.6,30.15,WSW,256,0.0,0.0,70,0.00,,,0.00,meteohub,2013-10-13 20:12:00,
2013-10-13 22:17:00,67.5,57.4,30.15,WSW,256,0.0,0.0,70,0.00,,,0.00,meteohub,2013-10-13 20:17:00,
2013-10-13 22:22:00,67.3,57.6,30.15,WSW,256,0.0,0.0,71,0.00,,,0.00,meteohub,2013-10-13 20:22:00,
2013-10-13 22:27:00,66.7,57.7,30.15,WSW,256,0.0,0.0,73,0.00,,,0.00,meteohub,2013-10-13 20:27:00,
2013-10-13 22:32:00,66.4,57.9,30.15,WSW,255,0.0,3.0,74,0.00,,,0.00,meteohub,2013-10-13 20:32:00,
2013-10-13 22:37:00,65.8,57.7,30.15,WSW,256,0.0,3.0,75,0.00,,,0.00,meteohub,2013-10-13 20:37:00,
2013-10-13 22:42:00,65.7,57.9,30.15,WSW,256,2.0,3.0,76,0.00,,,0.00,meteohub,2013-10-13 20:42:00,
2013-10-13 22:47:00,65.3,57.9,30.16,WSW,256,2.0,4.0,77,0.00,,,0.00,meteohub,2013-10-13 20:47:00,
2013-10-13 22:52:00,64.9,57.9,30.16,WSW,257,1.0,4.0,78,0.00,,,0.00,meteohub,2013-10-13 20:52:00,
2013-10-13 22:57:00,64.8,58.1,30.16,WSW,257,0.0,4.0,79,0.00,,,0.00,meteohub,2013-10-13 20:57:00,
2013-10-13 23:02:00,64.6,57.9,30.16,WSW,257,0.0,3.0,79,0.00,,,0.00,meteohub,2013-10-13 21:02:00,
2013-10-13 23:07:00,64.2,57.9,30.16,WSW,257,0.0,3.0,80,0.00,,,0.00,meteohub,2013-10-13 21:07:00,
2013-10-13 23:12:00,64.0,57.7,30.16,WSW,257,0.0,3.0,80,0.00,,,0.00,meteohub,2013-10-13 21:12:00,
2013-10-13 23:17:00,64.0,57.7,30.16,WSW,255,0.0,3.0,80,0.00,,,0.00,meteohub,2013-10-13 21:17:00,
2013-10-13 23:22:00,63.9,57.9,30.16,WSW,257,0.0,2.0,81,0.00,,,0.00,meteohub,2013-10-13 21:22:00,
2013-10-13 23:27:00,63.9,57.9,30.16,WSW,256,0.0,1.0,81,0.00,,,0.00,meteohub,2013-10-13 21:27:00,
2013-10-13 23:33:00,63.9,57.9,30.16,WSW,257,2.0,3.0,81,0.00,,,0.00,meteohub,2013-10-13 21:33:00,
2013-10-13 23:38:00,63.7,57.7,30.16,WSW,257,0.0,4.0,81,0.00,,,0.00,meteohub,2013-10-13 21:38:00,
2013-10-13 23:43:00,63.3,57.4,30.16,West,259,2.0,4.0,81,0.00,,,0.00,meteohub,2013-10-13 21:43:00,
2013-10-13 23:48:00,63.3,57.4,30.16,West,259,3.0,4.0,81,0.00,,,0.00,meteohub,2013-10-13 21:48:00,
2013-10-13 23:53:00,63.1,57.2,30.16,West,260,2.0,4.0,81,0.00,,,0.00,meteohub,2013-10-13 21:53:00,
2013-10-13 23:58:00,63.1,57.2,30.16,West,260,0.0,4.0,81,0.00,,,0.00,meteohub,2013-10-13 21:58:00,